Location: Washington
(38.8950°N, 77.0367°W)
Time: 21:57:25
(UTC-04:00)

N. Korean satellite - Visible Passes

Search period start: 21 August 2014 00:00
Search period end: 31 August 2014 00:00
Orbit: 486 x 557 km, 97.3° (Epoch: 20 August)

Date Brightness Start Highest point End Pass type
(mag) Time Alt. Az. Time Alt. Az. Time Alt. Az.
21 Aug 8.6 21:21:48 10° SSW 21:25:20 30° W 21:28:52 10° NW visible
22 Aug 8.0 21:08:29 10° S 21:12:18 44° W 21:16:06 10° NNW visible
23 Aug 7.2 20:55:19 10° S 20:59:16 65° W 21:03:12 10° NNW visible
24 Aug 6.8 20:42:17 10° SSE 20:46:16 86° ENE 20:50:13 10° N visible
25 Aug 6.9 20:29:23 10° SSE 20:33:16 58° ENE 20:37:09 10° N visible
26 Aug 7.4 20:16:35 10° SE 20:20:18 39° ENE 20:23:58 10° N visible
26 Aug 9.7 21:52:35 10° WSW 21:54:37 14° W 21:56:39 10° WNW visible
27 Aug 9.4 21:38:36 10° SW 21:41:29 19° W 21:44:22 10° NW visible
28 Aug 8.8 21:24:59 10° SSW 21:28:23 27° W 21:31:45 10° NW visible
29 Aug 8.1 21:11:35 10° SSW 21:15:17 39° W 21:18:57 10° NNW visible
30 Aug 7.4 20:58:20 10° S 21:02:12 58° W 21:06:02 10° NNW visible
